Date String (YYYY-MM-DD hh:mm:ss) UTC,Instrument flags,absolute air pressure of the measurement (hPa),sample flow rate (lpm),inlet stack bypass flow (lpm),air temperature of the measurement (°C),ambient temperature measured by the external sensor (°C),aerosol sample conditioner tube jacket temperature (°C),OPC LED temperature (°C),internal box temperature (°C),relative humidity of the measurement (%),span deviation,mass concentration of particles derived from Lorenz-Mie calculation of OPC scattering (μg/m³),mass concentration of particles derived from Lorenz-Mie calculation of OPC scattering (μg/m³),mass concentration of particles derived from Lorenz-Mie calculation of OPC scattering (μg/m³)
DateTimeUTC,F1_M11,P_M11,Q1_M11,Q2_M11,T1_M11,T2_M11,T3_M11,T4_M11,T5_M11,U1_M11,ZSPAN_M11,X0_M11,X2_M11,X1_M11
2023-08-08 12:00:00,SystemResetWarning,0832.2,5.00,000.00,030.0,028.6,000.0,038.7,031.5,23.1,0000.0,0010.92,0004.95,0004.12
2023-08-08 12:01:00,SystemResetWarning,0832.1,5.00,000.00,030.0,028.6,000.0,038.7,031.5,23.3,0000.0,0010.86,0004.98,0004.11
2023-08-08 12:02:00,SystemResetWarning,0831.9,5.00,000.00,030.0,028.6,000.0,038.7,031.5,23.4,0000.0,0010.97,0004.96,0004.10
2023-08-08 12:03:00,SystemResetWarning,0831.7,5.00,000.00,030.0,028.6,000.0,038.7,031.5,23.7,0000.0,0010.82,0004.97,0004.11
2023-08-08 12:04:00,SystemResetWarning,0831.7,5.00,000.00,030.0,028.6,000.0,038.7,031.5,24.1,0000.0,0010.90,0004.98,0004.11
2023-08-08 12:05:00,SystemResetWarning,0831.7,5.00,000.00,030.0,028.6,000.0,038.7,031.5,24.2,0000.0,0010.64,0004.93,0004.12
2023-08-08 12:06:00,SystemResetWarning,0831.7,5.01,000.00,030.0,028.6,000.0,038.7,031.5,24.3,0000.0,0010.59,0004.94,0004.14
2023-08-08 12:07:00,SystemResetWarning,0831.7,5.00,000.00,030.0,028.6,000.0,038.7,031.5,24.9,0000.0,0010.50,0004.98,0004.16
2023-08-08 12:08:00,SystemResetWarning,0831.6,5.00,000.00,030.0,028.6,000.0,038.7,031.5,25.3,0000.0,0010.38,0005.03,0004.19
2023-08-08 12:09:00,SystemResetWarning,0831.8,5.00,000.00,030.1,028.6,000.0,038.7,031.5,25.4,0000.0,0010.72,0005.07,0004.19
2023-08-08 12:10:00,SystemResetWarning,0832.0,5.00,000.00,030.0,028.6,000.0,038.7,031.5,25.3,0000.0,0010.99,0005.09,0004.19
2023-08-08 12:11:00,SystemResetWarning,0831.9,5.01,000.00,030.0,028.6,000.0,038.7,031.5,25.2,0000.0,0011.57,0005.11,0004.19
2023-08-08 12:12:00,SystemResetWarning,0832.0,5.00,000.00,030.0,028.6,000.0,038.8,031.5,25.0,0000.0,0011.65,0005.06,0004.18
2023-08-08 12:13:00,SystemResetWarning,0832.0,5.00,000.00,030.0,028.6,000.0,038.8,031.6,24.7,0000.0,0011.45,0005.08,0004.19
2023-08-08 12:14:00,SystemResetWarning,0832.1,4.99,000.00,030.1,028.7,000.0,038.8,031.6,24.3,0000.0,0011.45,0005.08,0004.19
2023-08-08 12:15:00,SystemResetWarning,0832.2,4.98,000.00,030.1,028.6,000.0,038.8,031.6,24.8,0000.0,0011.35,0005.07,0004.20
2023-08-08 12:16:00,SystemResetWarning,0832.2,5.00,000.00,030.1,028.6,000.0,038.8,031.6,24.9,0000.0,0011.85,0005.14,0004.21
2023-08-08 12:17:00,SystemResetWarning,0832.2,5.00,000.00,030.1,028.6,000.0,038.8,031.6,25.0,0000.0,0011.99,0005.18,0004.21
2023-08-08 12:18:00,SystemResetWarning,0832.1,5.01,000.00,030.1,028.7,000.0,038.8,031.6,25.1,0000.0,0012.31,0005.19,0004.19
2023-08-08 12:19:00,SystemResetWarning,0832.1,5.00,000.00,030.1,028.7,000.0,038.8,031.6,24.9,0000.0,0012.43,0005.19,0004.19
2023-08-08 12:20:00,SystemResetWarning,0832.0,5.00,000.00,030.1,028.7,000.0,038.8,031.6,24.4,0000.0,0012.19,0005.21,0004.21
2023-08-08 12:21:00,SystemResetWarning,0832.0,4.98,000.00,030.1,028.7,000.0,038.8,031.6,24.8,0000.0,0012.07,0005.26,0004.25
2023-08-08 12:22:00,SystemResetWarning,0831.9,5.00,000.00,030.1,028.7,000.0,038.8,031.6,24.9,0000.0,0011.90,0005.33,0004.28
2023-08-08 12:23:00,SystemResetWarning,0831.9,5.01,000.00,030.1,028.8,000.0,038.8,031.6,24.9,0000.0,0012.15,0005.42,0004.33
2023-08-08 12:24:00,SystemResetWarning,0831.9,5.00,000.00,030.1,028.8,000.0,038.8,031.6,25.0,0000.0,0013.08,0005.43,0004.36
2023-08-08 12:25:00,SystemResetWarning,0831.8,4.99,000.00,030.1,028.8,000.0,038.8,031.7,24.9,0000.0,0013.07,0005.45,0004.39
2023-08-08 12:26:00,SystemResetWarning,0831.8,4.99,000.00,030.1,028.8,000.0,038.8,031.7,24.9,0000.0,0012.96,0005.50,0004.43
2023-08-08 12:27:00,SystemResetWarning,0831.9,5.01,000.00,030.1,028.8,000.0,038.8,031.7,24.8,0000.0,0012.81,0005.55,0004.47
2023-08-08 12:28:00,SystemResetWarning,0831.8,5.01,000.00,030.1,028.8,000.0,038.8,031.7,24.9,0000.0,0013.60,0005.64,0004.52
2023-08-08 12:29:00,SystemResetWarning,0831.9,5.01,000.00,030.2,028.8,000.0,038.8,031.7,24.7,0000.0,0013.38,0005.63,0004.57
2023-08-08 12:30:00,SystemResetWarning,0831.9,4.99,000.00,030.2,028.8,000.0,038.8,031.7,24.8,0000.0,0013.80,0005.70,0004.61
2023-08-08 12:31:00,SystemResetWarning,0832.0,4.99,000.00,030.2,028.9,000.0,038.9,031.7,24.9,0000.0,0014.22,0005.78,0004.65
2023-08-08 12:32:00,SystemResetWarning,0832.0,4.99,000.00,030.2,028.8,000.0,038.9,031.7,24.8,0000.0,0014.18,0005.78,0004.69
2023-08-08 12:33:00,SystemResetWarning,0832.1,5.00,000.00,030.2,028.8,000.0,038.9,031.7,25.0,0000.0,0013.73,0005.78,0004.74
2023-08-08 12:34:00,SystemResetWarning,0832.0,5.00,000.00,030.2,028.8,000.0,038.9,031.7,25.2,0000.0,0013.25,0005.78,0004.78
2023-08-08 12:35:00,SystemResetWarning,0832.0,4.99,000.00,030.2,028.8,000.0,038.9,031.7,25.1,0000.0,0012.17,0005.83,0004.81
2023-08-08 12:36:00,SystemResetWarning,0832.0,5.00,000.00,030.2,028.8,000.0,038.9,031.7,25.1,0000.0,0012.20,0005.89,0004.85
2023-08-08 12:37:00,SystemResetWarning,0832.0,5.01,000.00,030.2,028.8,000.0,038.9,031.7,25.2,0000.0,0012.23,0005.90,0004.86
2023-08-08 12:38:00,SystemResetWarning,0832.0,5.01,000.00,030.2,028.8,000.0,038.9,031.8,25.3,0000.0,0012.08,0005.87,0004.87
2023-08-08 12:39:00,SystemResetWarning,0832.0,5.00,000.00,030.2,028.8,000.0,038.9,031.8,25.3,0001.0,0011.19,0005.81,0004.87
2023-08-08 12:40:00,SystemResetWarning,0832.0,4.99,000.00,030.2,028.8,000.0,038.9,031.8,25.1,0001.1,0011.35,0005.86,0004.89
2023-08-08 12:41:00,SystemResetWarning,0832.0,4.99,000.00,030.2,028.8,000.0,038.9,031.8,25.1,0001.4,0011.08,0005.89,0004.91
2023-08-08 12:42:00,SystemResetWarning,0832.0,4.99,000.00,030.2,028.8,000.0,038.9,031.8,25.0,0001.2,0010.59,0005.83,0004.91
2023-08-08 12:43:00,SystemResetWarning,0831.9,5.00,000.00,030.2,028.9,000.0,038.9,031.7,25.0,0001.3,0010.49,0005.81,0004.89
2023-08-08 12:44:00,SystemResetWarning,0831.9,5.00,000.00,030.3,028.6,000.0,038.9,031.8,25.0,0000.8,0010.77,0005.86,0004.88
2023-08-08 12:45:00,SystemResetWarning,0831.9,5.01,000.00,030.2,026.9,000.0,038.7,031.6,25.1,0000.0,0010.90,0005.88,0004.88
2023-08-08 12:46:00,SystemResetWarning,0831.9,5.01,000.00,030.2,025.8,000.0,038.6,031.4,25.1,0000.2,0011.47,0005.90,0004.89
2023-08-08 12:47:00,SystemResetWarning,0831.8,5.00,000.00,030.0,025.8,000.0,038.6,031.1,25.4,0000.3,0011.75,0005.89,0004.88
2023-08-08 12:48:00,SystemResetWarning,0831.9,4.99,000.00,029.9,026.1,000.0,038.6,031.0,25.7,0001.1,0011.77,0005.87,0004.89
2023-08-08 12:49:00,SystemResetWarning,0832.0,5.00,000.00,029.9,026.5,000.0,038.6,031.1,25.8,0001.5,0011.80,0005.89,0004.91
2023-08-08 12:50:00,SystemResetWarning,0832.0,5.00,000.00,029.8,026.8,000.0,038.6,031.2,25.8,0001.3,0011.93,0005.91,0004.91
2023-08-08 12:51:00,SystemResetWarning,0832.0,5.01,000.00,029.8,027.1,000.0,038.6,031.2,25.9,0000.6,0011.62,0005.89,0004.91
2023-08-08 12:52:00,SystemResetWarning,0832.1,4.99,000.00,029.8,027.4,000.0,038.6,031.2,26.0,0000.0,0011.90,0005.86,0004.90
2023-08-08 12:53:00,SystemResetWarning,0832.2,4.99,000.00,029.8,027.6,000.0,038.6,031.2,26.0,0000.0,0013.09,0005.86,0004.90
2023-08-08 12:54:00,SystemResetWarning,0832.2,5.02,000.00,029.8,027.8,000.0,038.6,031.3,26.1,0000.0,0013.38,0005.89,0004.91
2023-08-08 12:55:00,SystemResetWarning,0832.2,5.01,000.00,029.8,027.9,000.0,038.6,031.3,26.1,0000.6,0013.59,0005.86,0004.91
2023-08-08 12:56:00,SystemResetWarning,0832.2,4.99,000.00,029.8,028.0,000.0,038.6,031.3,26.1,0001.1,0013.28,0005.79,0004.90
2023-08-08 12:57:00,SystemResetWarning,0832.2,4.99,000.00,029.8,028.1,000.0,038.6,031.3,26.2,0000.9,0012.97,0005.78,0004.90
2023-08-08 12:58:00,SystemResetWarning,0832.2,5.00,000.00,029.8,028.2,000.0,038.6,031.3,26.1,0000.9,0013.52,0005.82,0004.90
2023-08-08 12:59:00,SystemResetWarning,0832.1,5.00,000.00,029.8,028.3,000.0,038.5,031.4,26.1,0000.2,0013.98,0005.87,0004.91
